Погода в Учкургане

Узбекистан     41°06′52″N   72°04′39″E
темп.,
°C
ветер,
м/с
пор.,
м/с
влажн.,
%
обл.,
%
осадки,
мм/ч
давл.,
гПа
погр.,
м
7 мая, пт
пт723:00+19ю1376100 1.8 1016109
02:00+19св2379100 2.1 1015149
05:00+18ссв227855 2.1 101522
08:00+22всв115928 0.0 1016533
11:00+26з214196 0.0 10141475
14:00+28з323477 0.0 10121871
17:00+29зюз23300 0.0 10112134
20:00+26ссз11375 0.1 101311
8 мая, сб
сб823:00+23в11505 0.3 101312
02:00+21всв34577 0.0 101373
05:00+20св235850 0.0 101446
08:00+24всв22445 0.0 1015422
11:00+29ю11325 0.0 10131524
14:00+31зюз23264 0.0 10102443
17:00+32вюв132432 0.0 10092795
20:00+27в333597 0.2 101062
9 мая, вс
вс923:00+22ссв595621 0.6 1012253
02:00+20св375836 0.0 1011171
05:00+20ссв346115 0.4 101264
08:00+25всв2341100 0.0 1012439
11:00+30юз2328100 0.0 10111508
14:00+32зюз332297 0.0 10092337
17:00+32зюз5421100 0.0 10082378
20:00+27зюз493041 0.0 1010243
10 мая, пн
пн1023:00+24ссв013953 0.0 101011
02:00+22всв344561 0.0 101070
05:00+20св224877 0.0 100933
08:00+25в1136100 0.0 1009441
11:00+29зюз4430100 0.0 10081368
14:00+32юз442497 0.0 10062363
17:00+30юз9829100 0.0 10061305
20:00+25зсз4835100 0.4 1009410
11 мая, вт
вт1123:00+23в124489 1.3 100950
02:00+22юв2437100 0.0 1010110
05:00+21ююв2440100 0.0 1011152
08:00+24ююз47280 0.0 1012931
11:00+28ю34240 0.0 10111827
14:00+31зюз34180 0.0 10092809
17:00+31зюз44175 0.0 10093186
20:00+25зюз611182 0.0 1010377